GW6028 Weather Reports


time (UTC)temp
C
wind
direction
speed
KPH
gust
KPH
rain 1hr
cm
rain 24hr
cm
rain mn
cm
humidity
%
barometer
mb
20260507085506 9 294 6.4 12.9 0.03 0.81 0.03 84 1006.7
20260507085008 9 307 4.8 12.9 0.03 0.81 0.03 84 1007.0
20260507084527 9 234 4.8 12.9 0.03 0.81 0.03 84 1007.0
20260507084012 9 31 4.8 12.9 0.03 0.81 0.03 83 1006.8
20260507083026 9 278 4.8 14.5 0.03 0.81 0.03 83 1006.8
20260507082508 9 283 6.4 14.5 0.03 0.81 0.03 83 1006.6
20260507081538 10 290 6.4 19.3 0.03 0.81 0.03 82 1006.8
20260507081007 10 273 9.7 19.3 0.03 0.81 0.03 82 1006.8
20260507080017 10 317 6.4 20.9 0.00 0.79 0.00 81 1006.5
20260507075508 10 288 9.7 20.9 0.00 0.79 0.00 81 1006.8
20260507075012 10 89 8.0 20.9 0.00 0.79 0.00 81 1006.8
20260507074521 10 321 4.8 16.1 0.00 0.79 0.00 81 1006.5
20260507074005 10 338 6.4 14.5 0.00 0.79 0.00 82 1006.6
20260507073023 10 326 8.0 20.9 0.00 0.79 0.00 82 1006.2
20260507072511 10 276 11.3 20.9 0.00 0.79 0.00 82 1006.2
20260507072009 10 270 6.4 22.5 0.00 0.79 0.00 83 1006.2
20260507071526 10 304 8.0 22.5 0.00 0.79 0.00 83 1006.3
20260507071008 10 261 11.3 20.9 0.00 0.79 0.00 83 1006.5
20260507070509 10 281 9.7 20.9 0.00 0.79 0.00 83 1006.1
20260507070026 10 284 9.7 19.3 0.00 0.79 0.00 84 1006.1
20260507065513 10 291 9.7 16.1 0.00 0.79 0.00 85 1006.2
20260507065004 11 248 8.0 19.3 0.00 0.79 0.00 85 1006.1
20260507064519 11 278 9.7 19.3 0.00 0.79 0.00 85 1006.1
20260507064008 11 273 9.7 17.7 0.00 0.79 0.00 85 1005.8
20260507063507 11 293 6.4 19.3 0.00 0.79 0.00 85 1005.9
20260507063022 11 297 6.4 19.3 0.00 0.79 0.00 85 1005.8
20260507062512 11 281 9.7 16.1 0.00 0.79 0.00 85 1006.0
20260507061516 11 273 8.0 16.1 0.00 0.79 0.00 85 1005.9
20260507060007 11 302 9.7 17.7 0.00 0.79 0.00 85 1006.2
20260507054514 11 276 8.0 14.5 0.00 0.79 0.00 84 1006.1
20260507053018 11 319 11.3 20.9 0.00 0.79 0.00 82 1006.5
20260507052509 11 276 11.3 16.1 0.00 0.79 0.00 83 1006.4
20260507051505 11 316 9.7 22.5 0.00 0.79 0.00 83 1006.3
20260507051002 12 305 9.7 19.3 0.00 0.79 0.00 83 1006.4
20260507050502 12 310 9.7 22.5 0.00 0.79 0.00 83 1006.5
20260507050011 12 285 11.3 22.5 0.00 0.79 0.00 83 1006.4
20260507044526 12 311 8.0 17.7 0.00 0.79 0.00 85 1005.9
20260507041523 13 297 11.3 17.7 0.00 0.79 0.00 87 1006.2
20260507040010 13 293 12.9 25.7 0.00 0.79 0.00 87 1005.7
20260507035503 14 290 6.4 19.3 0.00 0.79 0.79 89 1005.7
20260507035004 14 287 11.3 19.3 0.00 0.79 0.79 89 1005.7
20260507034509 14 287 8.0 22.5 0.00 0.79 0.79 89 1005.6
20260507033015 15 264 4.8 14.5 0.00 0.79 0.79 91 1005.3
20260507031520 15 217 4.8 12.9 0.00 0.79 0.79 91 1005.0
20260507030510 15 196 8.0 17.7 0.00 0.79 0.79 90 1005.0
20260507025007 15 210 8.0 19.3 0.00 0.79 0.79 90 1005.1
20260507024506 15 229 6.4 14.5 0.00 0.79 0.79 90 1005.1
20260507024003 15 150 8.0 14.5 0.00 0.79 0.79 90 1005.1
20260507022004 15 205 8.0 17.7 0.00 0.79 0.79 90 1005.0
20260507021516 15 224 6.4 17.7 0.00 0.79 0.79 90 1005.1
20260507021010 15 216 8.0 17.7 0.00 0.79 0.79 90 1005.1
20260507015507 15 180 8.0 16.1 0.00 0.79 0.79 90 1005.3
20260507014527 15 219 8.0 17.7 0.00 0.79 0.79 90 1005.3
20260507013008 15 227 8.0 20.9 0.00 0.79 0.79 91 1005.4
20260507012507 15 245 9.7 17.7 0.00 0.79 0.79 91 1005.5
20260507011511 15 232 6.4 17.7 0.00 0.79 0.79 91 1005.4
20260507010504 15 233 8.0 17.7 0.00 0.79 0.79 91 1005.5
20260507005508 15 149 8.0 16.1 0.00 0.79 0.79 92 1005.4
20260507005008 15 224 6.4 12.9 0.00 0.79 0.79 92 1005.4
20260507004520 14 188 3.2 11.3 0.00 0.79 0.79 92 1005.5
20260507003025 14 197 6.4 11.3 0.15 0.79 0.79 91 1005.5
20260507002506 14 179 6.4 11.3 0.18 0.79 0.79 91 1005.5
20260507001003 14 225 6.4 16.1 0.23 0.79 0.79 91 1005.4
20260507000503 15 157 8.0 16.1 0.25 0.79 0.79 91 1005.4
20260507000014 15 218 8.0 14.5 0.28 0.79 0.79 91 1005.3
20260506235504 15 171 6.4 14.5 0.30 0.79 0.79 90 1005.4
20260506235008 15 198 4.8 14.5 0.33 0.79 0.79 90 1005.3
20260506234521 15 208 8.0 14.5 0.36 0.79 0.79 90 1005.4
20260506234006 15 196 8.0 17.7 0.36 0.76 0.76 90 1005.4
20260506233509 15 202 4.8 17.7 0.30 0.71 0.71 90 1005.3
20260506232011 15 198 9.7 14.5 0.23 0.61 0.61 90 1005.6
20260506225505 15 167 8.0 17.7 0.13 0.48 0.48 90 1005.7
20260506225003 15 212 8.0 17.7 0.10 0.46 0.46 91 1005.7
20260506224006 13 226 3.2 8.0 0.08 0.41 0.41 90 1005.8
20260506223504 13 181 3.2 9.7 0.08 0.41 0.41 89 1005.9
20260506223017 13 165 3.2 11.3 0.08 0.41 0.41 89 1005.8
20260506222505 13 161 4.8 11.3 0.08 0.41 0.41 88 1005.8
20260506222009 13 210 4.8 11.3 0.05 0.38 0.38 86 1005.9
20260506221521 15 157 4.8 14.5 0.08 0.38 0.38 85 1006.1
20260506221011 15 168 6.4 14.5 0.05 0.36 0.36 88 1006.0
20260506220510 15 214 6.4 19.3 0.08 0.36 0.36 89 1006.0
20260506220031 15 231 9.7 19.3 0.08 0.36 0.36 89 1006.1
20260506215510 15 212 4.8 19.3 0.10 0.36 0.36 89 1006.1
20260506215009 15 205 6.4 19.3 0.13 0.36 0.36 89 1006.2
20260506214528 15 171 6.4 14.5 0.13 0.36 0.36 89 1006.2
20260506214007 15 149 6.4 14.5 0.13 0.33 0.33 90 1006.3
20260506213503 15 181 8.0 14.5 0.15 0.33 0.33 90 1006.4
20260506213014 14 141 3.2 9.7 0.18 0.33 0.33 88 1006.4
20260506212502 14 224 4.8 9.7 0.20 0.33 0.33 87 1006.4
20260506212002 15 169 4.8 8.0 0.23 0.33 0.33 87 1006.5
20260506211004 15 143 4.8 12.9 0.23 0.30 0.30 86 1006.6
20260506210504 15 161 4.8 12.9 0.20 0.28 0.28 87 1006.7
20260506205503 15 214 6.4 16.1 0.18 0.25 0.25 86 1006.7
20260506205003 15 158 8.0 16.1 0.15 0.23 0.23 85 1006.6
20260506204512 15 153 8.0 16.1 0.18 0.23 0.23 85 1006.5
20260506204005 16 180 8.0 17.7 0.15 0.20 0.20 84 1006.6
20260506203504 16 141 9.7 20.9 0.15 0.18 0.18 84 1006.7
20260506203012 16 188 9.7 20.9 0.13 0.15 0.15 83 1006.7
20260506202504 16 210 8.0 16.1 0.10 0.13 0.13 83 1006.6
20260506202004 16 188 6.4 16.1 0.08 0.10 0.10 83 1006.6
20260506201512 15 138 6.4 17.7 0.08 0.08 0.08 83 1006.5
20260506201002 15 202 11.3 17.7 0.08 0.08 0.08 80 1006.6
20260506200502 16 195 8.0 17.7 0.08 0.08 0.08 80 1006.4
20260506195503 16 193 9.7 16.1 0.08 0.08 0.08 80 1006.5
20260506195003 16 149 8.0 19.3 0.08 0.08 0.08 79 1006.5
20260506194507 17 166 8.0 19.3 0.05 0.05 0.05 78 1006.6
20260506194003 17 215 3.2 14.5 0.05 0.05 0.05 78 1006.7
20260506193502 17 191 8.0 14.5 0.03 0.03 0.03 78 1006.8
20260506193014 17 205 3.2 12.9 0.03 0.03 0.03 78 1006.7
20260506192504 17 200 6.4 12.9 0.03 0.03 0.03 79 1006.7
20260506192007 16 147 6.4 16.1 0.03 0.03 0.03 80 1006.7
20260506191516 16 186 8.0 16.1 0.00 0.00 0.00 78 1006.6
20260506191004 16 206 6.4 17.7 0.00 0.00 0.00 79 1006.5
20260506190505 15 139 9.7 17.7 0.00 0.00 0.00 77 1006.6
20260506190012 15 143 9.7 17.7 0.00 0.00 0.00 77 1006.6
20260506185505 15 217 8.0 19.3 0.00 0.00 0.00 76 1006.5
20260506185004 15 167 6.4 20.9 0.00 0.00 0.00 76 1006.6
20260506184504 15 134 9.7 20.9 0.00 0.00 0.00 76 1006.5
20260506184004 15 199 11.3 25.7 0.00 0.00 0.00 76 1006.7
20260506183505 15 214 11.3 25.7 0.00 0.00 0.00 74 1006.8
20260506183010 15 159 11.3 25.7 0.00 0.00 0.00 73 1006.6
20260506182503 16 169 11.3 22.5 0.00 0.00 0.00 72 1006.6
20260506182006 16 96 11.3 22.5 0.00 0.00 0.00 71 1006.7
20260506181518 16 184 9.7 22.5 0.00 0.00 0.00 70 1006.9
20260506181004 17 151 9.7 20.9 0.00 0.00 0.00 69 1006.8
20260506180506 17 131 11.3 25.7 0.00 0.00 0.00 69 1006.9
20260506180018 17 224 11.3 25.7 0.00 0.00 0.00 70 1007.0
20260506175504 16 202 12.9 25.7 0.00 0.00 0.00 71 1007.0
20260506175004 16 149 11.3 25.7 0.00 0.00 0.00 69 1007.1
20260506174513 17 164 11.3 25.7 0.00 0.00 0.00 69 1006.9
20260506174005 17 222 12.9 25.7 0.00 0.00 0.00 69 1007.0
20260506173504 17 115 9.7 24.1 0.00 0.00 0.00 69 1007.1
20260506173008 17 136 11.3 22.5 0.00 0.00 0.00 70 1007.1
20260506172504 16 149 9.7 22.5 0.00 0.00 0.00 70 1007.1
20260506172003 17 137 12.9 29.0 0.00 0.00 0.00 67 1007.1
20260506171511 17 110 12.9 29.0 0.00 0.00 0.00 69 1007.2
20260506171005 16 239 14.5 29.0 0.00 0.00 0.00 72 1007.3
20260506170504 16 167 11.3 19.3 0.00 0.00 0.00 72 1007.3
20260506170016 15 172 11.3 20.9 0.00 0.00 0.00 73 1007.5
20260506165504 15 194 11.3 20.9 0.00 0.00 0.00 73 1007.6
20260506165005 15 205 9.7 17.7 0.00 0.00 0.00 73 1007.6
20260506164524 15 186 9.7 19.3 0.00 0.00 0.00 73 1007.6
20260506164009 15 127 11.3 20.9 0.00 0.00 0.00 73 1007.7
20260506163508 15 138 11.3 20.9 0.00 0.00 0.00 72 1007.7
20260506163031 15 151 11.3 19.3 0.00 0.00 0.00 72 1007.8
20260506162506 15 169 9.7 19.3 0.00 0.00 0.00 71 1007.9
20260506162004 16 141 11.3 19.3 0.00 0.00 0.00 71 1007.9
20260506161510 16 172 9.7 19.3 0.00 0.00 0.00 70 1008.0
20260506161004 16 132 9.7 17.7 0.00 0.00 0.00 71 1008.1
20260506160504 16 172 9.7 17.7 0.00 0.00 0.00 70 1008.3
20260506160015 17 134 9.7 17.7 0.00 0.00 0.00 68 1008.3
20260506155505 17 214 8.0 14.5 0.00 0.00 0.00 67 1008.5
20260506155008 18 142 8.0 17.7 0.00 0.00 0.00 63 1008.6
20260506154524 20 155 8.0 20.9 0.00 0.00 0.00 60 1008.6
20260506154010 21 213 12.9 24.1 0.00 0.00 0.00 62 1008.6
20260506153507 21 233 9.7 24.1 0.00 0.00 0.00 61 1008.9
20260506153020 21 192 12.9 24.1 0.00 0.00 0.00 61 1008.8
20260506152506 21 153 12.9 24.1 0.00 0.00 0.00 61 1008.8
20260506152009 21 208 12.9 24.1 0.00 0.00 0.00 61 1008.8
20260506151518 21 167 12.9 24.1 0.00 0.00 0.00 61 1008.8
20260506151008 21 190 14.5 22.5 0.00 0.00 0.00 60 1008.9
20260506150503 21 221 11.3 24.1 0.00 0.00 0.00 61 1009.0
20260506150010 21 217 9.7 24.1 0.00 0.00 0.00 62 1008.9
20260506145504 21 205 9.7 27.4 0.00 0.00 0.00 62 1008.9
20260506145004 21 227 12.9 27.4 0.00 0.00 0.00 61 1009.0
20260506144513 21 220 12.9 24.1 0.00 0.00 0.00 61 1008.8
20260506144006 21 214 11.3 30.6 0.00 0.00 0.00 63 1008.8
20260506143511 21 187 14.5 30.6 0.00 0.00 0.00 63 1008.8
20260506143021 21 241 16.1 30.6 0.00 0.00 0.00 63 1008.6
20260506142506 21 177 16.1 27.4 0.00 0.00 0.00 64 1008.6
20260506142009 20 202 14.5 22.5 0.00 0.00 0.00 64 1008.7
20260506141522 20 221 14.5 22.5 0.00 0.00 0.00 65 1008.8
20260506141008 20 243 12.9 20.9 0.00 0.00 0.00 66 1008.8
20260506140516 20 33 9.7 20.9 0.00 0.00 0.00 67 1008.8
20260506140024 20 229 9.7 20.9 0.00 0.00 0.00 67 1008.9
20260506135002 19 229 12.9 22.5 0.00 0.00 0.00 68 1009.1
20260506134513 19 219 9.7 20.9 0.00 0.00 0.00 68 1009.1
20260506134006 19 240 11.3 24.1 0.00 0.00 0.00 68 1009.3
20260506133506 19 231 12.9 24.1 0.00 0.00 0.00 68 1009.3
20260506133015 19 245 14.5 22.5 0.00 0.00 0.00 69 1009.3
20260506132506 18 253 9.7 24.1 0.00 0.00 0.00 69 1009.1
20260506132007 18 216 11.3 24.1 0.00 0.00 0.00 69 1009.2
20260506131519 18 207 11.3 27.4 0.00 0.00 0.00 69 1009.2
20260506131008 18 188 12.9 27.4 0.00 0.00 0.00 69 1009.4
20260506130511 18 220 12.9 27.4 0.00 0.00 0.00 69 1009.2
20260506130024 19 224 16.1 29.0 0.00 0.00 0.00 68 1009.5
20260506125509 18 214 12.9 29.0 0.00 0.00 0.00 69 1009.1
20260506125010 18 236 9.7 22.5 0.00 0.00 0.00 71 1009.4
20260506124523 18 229 11.3 22.5 0.00 0.00 0.00 71 1009.4
20260506124009 18 229 14.5 22.5 0.00 0.00 0.00 71 1009.3
20260506123505 18 234 12.9 20.9 0.00 0.00 0.00 71 1009.5
20260506123010 18 221 9.7 20.9 0.00 0.00 0.00 72 1009.5
20260506122507 17 200 11.3 20.9 0.00 0.00 0.00 72 1009.4
20260506122003 17 169 9.7 20.9 0.00 0.00 0.00 73 1009.2
20260506121517 17 215 12.9 20.9 0.00 0.00 0.00 73 1009.3
20260506121006 17 132 9.7 17.7 0.00 0.00 0.00 73 1009.4
20260506120511 17 226 11.3 22.5 0.00 0.00 0.00 73 1009.5
20260506120030 17 216 11.3 22.5 0.00 0.00 0.00 73 1009.5
20260506115507 17 203 9.7 22.5 0.00 0.00 0.00 74 1009.6
20260506115012 17 212 11.3 24.1 0.00 0.00 0.00 74 1009.6
20260506114524 17 209 11.3 24.1 0.00 0.00 0.00 74 1009.8
20260506114006 17 240 8.0 24.1 0.00 0.00 0.00 74 1009.7
20260506113508 17 215 11.3 24.1 0.00 0.00 0.00 74 1009.8
20260506113024 17 205 11.3 22.5 0.00 0.00 0.00 75 1009.7
20260506112512 17 212 9.7 22.5 0.00 0.00 0.00 75 1009.7
20260506112004 17 169 12.9 25.7 0.00 0.00 0.00 75 1009.6
20260506111513 16 236 14.5 25.7 0.00 0.00 0.00 75 1009.7
20260506111009 16 210 11.3 19.3 0.00 0.00 0.00 75 1009.8
20260506110507 16 209 9.7 22.5 0.00 0.00 0.00 75 1009.6
20260506110016 16 174 11.3 22.5 0.00 0.00 0.00 75 1009.6
20260506105512 16 218 9.7 19.3 0.00 0.00 0.00 75 1009.6
20260506105007 16 205 8.0 20.9 0.00 0.00 0.00 75 1009.6
20260506104520 16 216 9.7 20.9 0.00 0.00 0.00 75 1009.6
20260506104008 16 234 9.7 17.7 0.00 0.00 0.00 75 1009.5
20260506103508 16 262 9.7 17.7 0.00 0.00 0.00 75 1009.6
20260506103025 16 222 11.3 17.7 0.00 0.00 0.00 75 1009.5
20260506102508 16 158 6.4 17.7 0.00 0.00 0.00 75 1009.6
20260506102011 16 219 8.0 17.7 0.00 0.00 0.00 75 1009.6
20260506101526 16 218 9.7 17.7 0.00 0.00 0.00 75 1009.6
20260506101015 16 212 9.7 17.7 0.00 0.00 0.00 75 1009.6
20260506100504 16 250 9.7 17.7 0.00 0.00 0.00 75 1009.4
20260506095504 16 198 6.4 17.7 0.00 0.00 0.00 75 1009.3
20260506093503 16 221 9.7 19.3 0.00 0.00 0.00 74 1009.6
20260506093012 16 224 9.7 19.3 0.00 0.00 0.00 74 1009.6
20260506092504 16 225 8.0 17.7 0.00 0.00 0.00 74 1009.4
20260506092004 16 198 8.0 22.5 0.00 0.00 0.00 73 1009.4
20260506091508 16 185 12.9 22.5 0.00 0.00 0.00 73 1009.5
20260506091003 16 254 12.9 24.1 0.00 0.00 0.00 73 1009.5
20260506090504 16 233 12.9 24.1 0.00 0.00 0.00 73 1009.5
20260506090015 16 206 9.7 20.9 0.00 0.00 0.00 73 1009.5